Year,Month,Day,Hour,Minute,Value (Times are PST for temperature in C)
2015,07,27,00,00,14.10
2015,07,27,00,01,14.10
2015,07,27,00,02,14.10
2015,07,27,00,03,14.00
2015,07,27,00,04,14.00
2015,07,27,00,05,14.00
2015,07,27,00,06,14.00
2015,07,27,00,07,14.00
2015,07,27,00,08,13.90
2015,07,27,00,09,13.90
2015,07,27,00,10,13.90
2015,07,27,00,11,13.90
2015,07,27,00,12,13.90
2015,07,27,00,13,13.90
2015,07,27,00,14,13.90
2015,07,27,00,15,13.90
2015,07,27,00,16,13.90
2015,07,27,00,17,13.90
2015,07,27,00,18,13.90
2015,07,27,00,19,13.90
2015,07,27,00,20,13.90
2015,07,27,00,21,13.90
2015,07,27,00,22,13.80
2015,07,27,00,23,13.80
2015,07,27,00,24,13.80
2015,07,27,00,25,13.80
2015,07,27,00,26,13.80
2015,07,27,00,27,13.80
2015,07,27,00,28,13.80
2015,07,27,00,29,13.80
2015,07,27,00,30,13.80
2015,07,27,00,31,13.80
2015,07,27,00,32,13.80
2015,07,27,00,33,13.80
2015,07,27,00,34,13.80
2015,07,27,00,35,13.80
2015,07,27,00,36,13.80
2015,07,27,00,37,13.80
2015,07,27,00,38,13.80
2015,07,27,00,39,13.80
2015,07,27,00,40,13.80
2015,07,27,00,41,13.70
2015,07,27,00,42,13.70
2015,07,27,00,43,13.70
2015,07,27,00,44,13.70
2015,07,27,00,45,13.70
2015,07,27,00,46,13.70
2015,07,27,00,47,13.70
2015,07,27,00,48,13.70
2015,07,27,00,49,13.70
2015,07,27,00,50,13.70
2015,07,27,00,51,13.70
2015,07,27,00,52,13.70
2015,07,27,00,53,13.70
2015,07,27,00,54,13.70
2015,07,27,00,55,13.70
2015,07,27,00,56,13.70
2015,07,27,00,57,13.60
2015,07,27,00,58,13.60
2015,07,27,00,59,13.60
2015,07,27,01,00,13.60
2015,07,27,01,01,13.60
2015,07,27,01,02,13.60
2015,07,27,01,03,13.60
2015,07,27,01,04,13.60
2015,07,27,01,05,13.60
2015,07,27,01,06,13.60
2015,07,27,01,07,13.60
2015,07,27,01,08,13.60
2015,07,27,01,09,13.60
2015,07,27,01,10,13.60
2015,07,27,01,11,13.60
2015,07,27,01,12,13.60
2015,07,27,01,13,13.50
2015,07,27,01,14,13.50
2015,07,27,01,15,13.50
2015,07,27,01,16,13.50
2015,07,27,01,17,13.50
2015,07,27,01,18,13.50
2015,07,27,01,19,13.50
2015,07,27,01,20,13.50
2015,07,27,01,21,13.50
2015,07,27,01,22,13.50
2015,07,27,01,23,13.50
2015,07,27,01,24,13.50
2015,07,27,01,25,13.50
2015,07,27,01,26,13.50
2015,07,27,01,27,13.50
2015,07,27,01,28,13.50
2015,07,27,01,29,13.50
2015,07,27,01,30,13.50
2015,07,27,01,31,13.40
2015,07,27,01,32,13.40
2015,07,27,01,33,13.40
2015,07,27,01,34,13.40
2015,07,27,01,35,13.40
2015,07,27,01,36,13.40
2015,07,27,01,37,13.40
2015,07,27,01,38,13.40
2015,07,27,01,39,13.40
2015,07,27,01,40,13.40
2015,07,27,01,41,13.40
2015,07,27,01,42,13.40
2015,07,27,01,43,13.40
2015,07,27,01,44,13.40
2015,07,27,01,45,13.40
2015,07,27,01,46,13.40
2015,07,27,01,47,13.40
2015,07,27,01,48,13.40
2015,07,27,01,49,13.40
2015,07,27,01,50,13.40
2015,07,27,01,51,13.40
2015,07,27,01,52,13.40
2015,07,27,01,53,13.40
2015,07,27,01,54,13.40
2015,07,27,01,55,13.40
2015,07,27,01,56,13.40
2015,07,27,01,57,13.40
2015,07,27,01,58,13.40
2015,07,27,01,59,13.40
2015,07,27,02,00,13.40
2015,07,27,02,01,13.40
2015,07,27,02,02,13.40
2015,07,27,02,03,13.40
2015,07,27,02,04,13.30
2015,07,27,02,05,13.30
2015,07,27,02,06,13.30
2015,07,27,02,07,13.30
2015,07,27,02,08,13.30
2015,07,27,02,09,13.30
2015,07,27,02,10,13.30
2015,07,27,02,11,13.30
2015,07,27,02,12,13.30
2015,07,27,02,13,13.30
2015,07,27,02,14,13.30
2015,07,27,02,15,13.30
2015,07,27,02,16,13.30
2015,07,27,02,17,13.30
2015,07,27,02,18,13.30
2015,07,27,02,19,13.30
2015,07,27,02,20,13.30
2015,07,27,02,21,13.30
2015,07,27,02,22,13.30
2015,07,27,02,23,13.30
2015,07,27,02,24,13.30
2015,07,27,02,25,13.30
2015,07,27,02,26,13.30
2015,07,27,02,27,13.30
2015,07,27,02,28,13.30
2015,07,27,02,29,13.30
2015,07,27,02,30,13.30
2015,07,27,02,31,13.30
2015,07,27,02,32,13.30
2015,07,27,02,33,13.30
2015,07,27,02,34,13.30
2015,07,27,02,35,13.30
2015,07,27,02,36,13.30
2015,07,27,02,37,13.30
2015,07,27,02,38,13.30
2015,07,27,02,39,13.30
2015,07,27,02,40,13.30
2015,07,27,02,41,13.30
2015,07,27,02,42,13.30
2015,07,27,02,43,13.30
2015,07,27,02,44,13.20
2015,07,27,02,45,13.20
2015,07,27,02,46,13.20
2015,07,27,02,47,13.20
2015,07,27,02,48,13.20
2015,07,27,02,49,13.20
2015,07,27,02,50,13.20
2015,07,27,02,51,13.20
2015,07,27,02,52,13.20
2015,07,27,02,53,13.20
2015,07,27,02,54,13.20
2015,07,27,02,55,13.20
2015,07,27,02,56,13.20
2015,07,27,02,57,13.20
2015,07,27,02,58,13.20
2015,07,27,02,59,13.20
2015,07,27,03,00,13.20
2015,07,27,03,01,13.10
2015,07,27,03,02,13.10
2015,07,27,03,03,13.10
2015,07,27,03,04,13.10
2015,07,27,03,05,13.10
2015,07,27,03,06,13.10
2015,07,27,03,07,13.10
2015,07,27,03,08,13.10
2015,07,27,03,09,13.10
2015,07,27,03,10,13.10
2015,07,27,03,11,13.10
2015,07,27,03,12,13.10
2015,07,27,03,13,13.10
2015,07,27,03,14,13.10
2015,07,27,03,15,13.10
2015,07,27,03,16,13.10
2015,07,27,03,17,13.10
2015,07,27,03,18,13.10
2015,07,27,03,19,13.10
2015,07,27,03,20,13.10
2015,07,27,03,21,13.10
2015,07,27,03,22,13.10
2015,07,27,03,23,13.10
2015,07,27,03,24,13.00
2015,07,27,03,25,13.00
2015,07,27,03,26,13.00
2015,07,27,03,27,13.00
2015,07,27,03,28,13.00
2015,07,27,03,29,13.00
2015,07,27,03,30,13.00
2015,07,27,03,31,13.00
2015,07,27,03,32,13.00
2015,07,27,03,33,13.00
2015,07,27,03,34,13.00
2015,07,27,03,35,13.00
2015,07,27,03,36,13.00
2015,07,27,03,37,13.00
2015,07,27,03,38,13.00
2015,07,27,03,39,13.00
2015,07,27,03,40,13.00
2015,07,27,03,41,13.00
2015,07,27,03,42,13.00
2015,07,27,03,43,13.00
2015,07,27,03,44,13.00
2015,07,27,03,45,13.00
2015,07,27,03,46,13.00
2015,07,27,03,47,12.90
2015,07,27,03,48,12.90
2015,07,27,03,49,12.90
2015,07,27,03,50,13.00
2015,07,27,03,51,12.90
2015,07,27,03,52,12.90
2015,07,27,03,53,12.90
2015,07,27,03,54,12.90
2015,07,27,03,55,12.90
2015,07,27,03,56,12.90
2015,07,27,03,57,12.90
2015,07,27,03,58,12.90
2015,07,27,03,59,12.90
2015,07,27,04,00,12.90
2015,07,27,04,01,12.90
2015,07,27,04,02,12.90
2015,07,27,04,03,12.90
2015,07,27,04,04,12.90
2015,07,27,04,05,12.90
2015,07,27,04,06,12.90
2015,07,27,04,07,12.80
2015,07,27,04,08,12.80
2015,07,27,04,09,12.80
2015,07,27,04,10,12.80
2015,07,27,04,11,12.80
2015,07,27,04,12,12.80
2015,07,27,04,13,12.80
2015,07,27,04,14,12.80
2015,07,27,04,15,12.80
2015,07,27,04,16,12.80
2015,07,27,04,17,12.80
2015,07,27,04,18,12.80
2015,07,27,04,19,12.80
2015,07,27,04,20,12.80
2015,07,27,04,21,12.80
2015,07,27,04,22,12.80
2015,07,27,04,23,12.80
2015,07,27,04,24,12.80
2015,07,27,04,25,12.80
2015,07,27,04,26,12.80
2015,07,27,04,27,12.70
2015,07,27,04,28,12.70
2015,07,27,04,29,12.70
2015,07,27,04,30,12.70
2015,07,27,04,31,12.70
2015,07,27,04,32,12.70
2015,07,27,04,33,12.70
2015,07,27,04,34,12.70
2015,07,27,04,35,12.70
2015,07,27,04,36,12.70
2015,07,27,04,37,12.70
2015,07,27,04,38,12.70
2015,07,27,04,39,12.70
2015,07,27,04,40,12.70
2015,07,27,04,41,12.60
2015,07,27,04,42,12.60
2015,07,27,04,43,12.60
2015,07,27,04,44,12.60
2015,07,27,04,45,12.60
2015,07,27,04,46,12.60
2015,07,27,04,47,12.60
2015,07,27,04,48,12.60
2015,07,27,04,49,12.60
2015,07,27,04,50,12.60
2015,07,27,04,51,12.50
2015,07,27,04,52,12.50
2015,07,27,04,53,12.50
2015,07,27,04,54,12.50
2015,07,27,04,55,12.50
2015,07,27,04,56,12.50
2015,07,27,04,57,12.50
2015,07,27,04,58,12.50
2015,07,27,04,59,12.50
2015,07,27,05,00,12.50
2015,07,27,05,01,12.50
2015,07,27,05,02,12.50
2015,07,27,05,03,12.50
2015,07,27,05,04,12.40
2015,07,27,05,05,12.40
2015,07,27,05,06,12.50
2015,07,27,05,07,12.40
2015,07,27,05,08,12.40
2015,07,27,05,09,12.40
2015,07,27,05,10,12.40
2015,07,27,05,11,12.40
2015,07,27,05,12,12.40
2015,07,27,05,13,12.40
2015,07,27,05,14,12.40
2015,07,27,05,15,12.40
2015,07,27,05,16,12.40
2015,07,27,05,17,12.40
2015,07,27,05,18,12.40
2015,07,27,05,19,12.40
2015,07,27,05,20,12.40
2015,07,27,05,21,12.30
2015,07,27,05,22,12.30
2015,07,27,05,23,12.30
2015,07,27,05,24,12.30
2015,07,27,05,25,12.30
2015,07,27,05,26,12.30
2015,07,27,05,27,12.30
2015,07,27,05,28,12.30
2015,07,27,05,29,12.30
2015,07,27,05,30,12.20
2015,07,27,05,31,12.20
2015,07,27,05,32,12.20
2015,07,27,05,33,12.20
2015,07,27,05,34,12.20
2015,07,27,05,35,12.20
2015,07,27,05,36,12.10
2015,07,27,05,37,12.10
2015,07,27,05,38,12.10
2015,07,27,05,39,12.10
2015,07,27,05,40,12.10
2015,07,27,05,41,12.10
2015,07,27,05,42,12.10
2015,07,27,05,43,12.00
2015,07,27,05,44,12.00
2015,07,27,05,45,12.00
2015,07,27,05,46,12.00
2015,07,27,05,47,12.00
2015,07,27,05,48,12.00
2015,07,27,05,49,12.00
2015,07,27,05,50,12.00
2015,07,27,05,51,12.00
2015,07,27,05,52,12.00
2015,07,27,05,53,12.00
2015,07,27,05,54,11.90
2015,07,27,05,55,11.90
2015,07,27,05,56,11.90
2015,07,27,05,57,11.90
2015,07,27,05,58,11.90
2015,07,27,05,59,11.90
2015,07,27,06,00,11.90
2015,07,27,06,01,11.90
2015,07,27,06,02,11.90
2015,07,27,06,03,11.90
2015,07,27,06,04,11.90
2015,07,27,06,05,11.90
2015,07,27,06,06,11.90
2015,07,27,06,07,11.90
2015,07,27,06,08,11.90
2015,07,27,06,09,11.90
2015,07,27,06,10,11.90
2015,07,27,06,11,11.90
2015,07,27,06,12,11.90
2015,07,27,06,13,11.80
2015,07,27,06,14,11.80
2015,07,27,06,15,11.90
2015,07,27,06,16,11.90
2015,07,27,06,17,11.90
2015,07,27,06,18,11.90
2015,07,27,06,19,11.90
2015,07,27,06,20,11.90
2015,07,27,06,21,11.90
2015,07,27,06,22,11.90
2015,07,27,06,23,11.90
2015,07,27,06,24,11.90
2015,07,27,06,25,11.90
2015,07,27,06,26,11.90
2015,07,27,06,27,11.90
2015,07,27,06,28,11.90
2015,07,27,06,29,11.90
2015,07,27,06,30,11.90
2015,07,27,06,31,11.90
2015,07,27,06,32,11.90
2015,07,27,06,33,12.00
2015,07,27,06,34,12.00
2015,07,27,06,35,12.00
2015,07,27,06,36,12.00
2015,07,27,06,37,12.10
2015,07,27,06,38,12.10
2015,07,27,06,39,12.10
2015,07,27,06,40,12.10
2015,07,27,06,41,12.10
2015,07,27,06,42,12.20
2015,07,27,06,43,12.20
2015,07,27,06,44,12.20
2015,07,27,06,45,12.20
2015,07,27,06,46,12.20
2015,07,27,06,47,12.30
2015,07,27,06,48,12.30
2015,07,27,06,49,12.30
2015,07,27,06,50,12.30
2015,07,27,06,51,12.40
2015,07,27,06,52,12.40
2015,07,27,06,53,12.40
2015,07,27,06,54,12.50
2015,07,27,06,55,12.50
2015,07,27,06,56,12.50
2015,07,27,06,57,12.60
2015,07,27,06,58,12.60
2015,07,27,06,59,12.60
2015,07,27,07,00,12.70
2015,07,27,07,01,12.70
2015,07,27,07,02,12.80
2015,07,27,07,03,12.80
2015,07,27,07,04,12.80
2015,07,27,07,05,12.90
2015,07,27,07,06,12.90
2015,07,27,07,07,13.00
2015,07,27,07,08,13.00
2015,07,27,07,09,13.00
2015,07,27,07,10,13.10
2015,07,27,07,11,13.10
2015,07,27,07,12,13.20
2015,07,27,07,13,13.20
2015,07,27,07,14,13.30
2015,07,27,07,15,13.30
2015,07,27,07,16,13.30
2015,07,27,07,17,13.40
2015,07,27,07,18,13.40
2015,07,27,07,19,13.50
2015,07,27,07,20,13.50
2015,07,27,07,21,13.60
2015,07,27,07,22,13.60
2015,07,27,07,23,13.70
2015,07,27,07,24,13.70
2015,07,27,07,25,13.80
2015,07,27,07,26,13.80
2015,07,27,07,27,13.90
2015,07,27,07,28,13.90
2015,07,27,07,29,14.00
2015,07,27,07,30,14.00
2015,07,27,07,31,14.10
2015,07,27,07,32,14.10
2015,07,27,07,33,14.20
2015,07,27,07,34,14.30
2015,07,27,07,35,14.30
2015,07,27,07,36,14.40
2015,07,27,07,37,14.40
2015,07,27,07,38,14.50
2015,07,27,07,39,14.50
2015,07,27,07,40,14.60
2015,07,27,07,41,14.70
2015,07,27,07,42,14.70
2015,07,27,07,43,14.80
2015,07,27,07,44,14.80
2015,07,27,07,45,14.90
2015,07,27,07,46,14.90
2015,07,27,07,47,15.00
2015,07,27,07,48,15.10
2015,07,27,07,49,15.10
2015,07,27,07,50,15.20
2015,07,27,07,51,15.20
2015,07,27,07,52,15.30
2015,07,27,07,53,15.40
2015,07,27,07,54,15.40
2015,07,27,07,55,15.50
2015,07,27,07,56,15.60
2015,07,27,07,57,15.60
2015,07,27,07,58,15.70
2015,07,27,07,59,15.80
2015,07,27,08,00,15.80
2015,07,27,08,01,15.90
2015,07,27,08,02,16.00
2015,07,27,08,03,16.00
2015,07,27,08,04,16.10
2015,07,27,08,05,16.20
2015,07,27,08,06,16.30
2015,07,27,08,07,16.30
2015,07,27,08,08,16.40
2015,07,27,08,09,16.50
2015,07,27,08,10,16.60
2015,07,27,08,11,16.60
2015,07,27,08,12,16.70
2015,07,27,08,13,16.70
2015,07,27,08,14,16.80
2015,07,27,08,15,16.80
2015,07,27,08,16,16.90
2015,07,27,08,17,16.90
2015,07,27,08,18,17.00
2015,07,27,08,19,17.10
2015,07,27,08,20,17.10
2015,07,27,08,21,17.20
2015,07,27,08,22,17.20
2015,07,27,08,23,17.20
2015,07,27,08,24,17.30
2015,07,27,08,25,17.30
2015,07,27,08,26,17.30
2015,07,27,08,27,17.30
2015,07,27,08,28,17.40
2015,07,27,08,29,17.40
2015,07,27,08,30,17.40
2015,07,27,08,31,17.40
2015,07,27,08,32,17.40
2015,07,27,08,33,17.40
2015,07,27,08,34,17.40
2015,07,27,08,35,17.40
2015,07,27,08,36,17.40
2015,07,27,08,37,17.50
2015,07,27,08,38,17.50
2015,07,27,08,39,17.50
2015,07,27,08,40,17.50
2015,07,27,08,41,17.50
2015,07,27,08,42,17.60
2015,07,27,08,43,17.60
2015,07,27,08,44,17.60
2015,07,27,08,45,17.60
2015,07,27,08,46,17.70
2015,07,27,08,47,17.70
2015,07,27,08,48,17.70
2015,07,27,08,49,17.70
2015,07,27,08,50,17.80
2015,07,27,08,51,17.80
2015,07,27,08,52,17.80
2015,07,27,08,53,17.90
2015,07,27,08,54,17.90
2015,07,27,08,55,17.90
2015,07,27,08,56,17.90
2015,07,27,08,57,18.00
2015,07,27,08,58,18.00
2015,07,27,08,59,18.00
2015,07,27,09,00,18.00
2015,07,27,09,01,18.00
2015,07,27,09,02,18.00
2015,07,27,09,03,18.10
2015,07,27,09,04,18.10
2015,07,27,09,05,18.20
2015,07,27,09,06,18.20
2015,07,27,09,07,18.20
2015,07,27,09,08,18.20
2015,07,27,09,09,18.30
2015,07,27,09,10,18.30
2015,07,27,09,11,18.30
2015,07,27,09,12,18.30
2015,07,27,09,13,18.30
2015,07,27,09,14,18.30
2015,07,27,09,15,18.30
2015,07,27,09,16,18.30
2015,07,27,09,17,18.30
2015,07,27,09,18,18.20
2015,07,27,09,19,18.20
2015,07,27,09,20,18.20
2015,07,27,09,21,18.20
2015,07,27,09,22,18.20
2015,07,27,09,23,18.20
2015,07,27,09,24,18.20
2015,07,27,09,25,18.20
2015,07,27,09,26,18.20
2015,07,27,09,27,18.20
2015,07,27,09,28,18.20
2015,07,27,09,29,18.10
2015,07,27,09,30,18.10
2015,07,27,09,31,18.10
2015,07,27,09,32,18.10
2015,07,27,09,33,18.10
2015,07,27,09,34,18.10
2015,07,27,09,35,18.10
2015,07,27,09,36,18.10
2015,07,27,09,37,18.10
2015,07,27,09,38,18.20
2015,07,27,09,39,18.20
2015,07,27,09,40,18.30
2015,07,27,09,41,18.30
2015,07,27,09,42,18.40
2015,07,27,09,43,18.40
2015,07,27,09,44,18.40
2015,07,27,09,45,18.40
2015,07,27,09,46,18.40
2015,07,27,09,47,18.40
2015,07,27,09,48,18.40
2015,07,27,09,49,18.50
2015,07,27,09,50,18.50
2015,07,27,09,51,18.60
2015,07,27,09,52,18.60
2015,07,27,09,53,18.60
2015,07,27,09,54,18.60
2015,07,27,09,55,18.60
2015,07,27,09,56,18.70
2015,07,27,09,57,18.70
2015,07,27,09,58,18.70
2015,07,27,09,59,18.80
2015,07,27,10,00,18.80
2015,07,27,10,01,18.90
2015,07,27,10,02,18.90
2015,07,27,10,03,18.90
2015,07,27,10,04,18.90
2015,07,27,10,05,18.90
2015,07,27,10,06,18.90
2015,07,27,10,07,19.00
2015,07,27,10,08,18.90
2015,07,27,10,09,18.90
2015,07,27,10,10,18.90
2015,07,27,10,11,18.90
2015,07,27,10,12,18.90
2015,07,27,10,13,18.90
2015,07,27,10,14,18.90
2015,07,27,10,15,18.90
2015,07,27,10,16,18.90
2015,07,27,10,17,18.90
2015,07,27,10,18,18.90
2015,07,27,10,19,18.90
2015,07,27,10,20,18.90
2015,07,27,10,21,18.90
2015,07,27,10,22,18.90
2015,07,27,10,23,18.90
2015,07,27,10,24,19.00
2015,07,27,10,25,19.00
2015,07,27,10,26,19.00
2015,07,27,10,27,19.00
2015,07,27,10,28,19.00
2015,07,27,10,29,19.00
2015,07,27,10,30,19.00
2015,07,27,10,31,19.00
2015,07,27,10,32,19.00
2015,07,27,10,33,19.00
2015,07,27,10,34,19.00
2015,07,27,10,35,19.00
2015,07,27,10,36,18.90
2015,07,27,10,37,18.90
2015,07,27,10,38,18.90
2015,07,27,10,39,19.00
2015,07,27,10,40,19.00
2015,07,27,10,41,19.00
2015,07,27,10,42,19.00
2015,07,27,10,43,19.10
2015,07,27,10,44,19.10
2015,07,27,10,45,19.10
2015,07,27,10,46,19.20
2015,07,27,10,47,19.20
2015,07,27,10,48,19.20
2015,07,27,10,49,19.20
2015,07,27,10,50,19.20
2015,07,27,10,51,19.20
2015,07,27,10,52,19.20
2015,07,27,10,53,19.20
2015,07,27,10,54,19.20
2015,07,27,10,55,19.20
2015,07,27,10,56,19.20
2015,07,27,10,57,19.20
2015,07,27,10,58,19.30
2015,07,27,10,59,19.40
2015,07,27,11,00,19.40
2015,07,27,11,01,19.40
2015,07,27,11,02,19.50
2015,07,27,11,03,19.40
2015,07,27,11,04,19.40
2015,07,27,11,05,19.40
2015,07,27,11,06,19.30
2015,07,27,11,07,19.20
2015,07,27,11,08,19.10
2015,07,27,11,09,19.10
2015,07,27,11,10,19.10
2015,07,27,11,11,19.10
2015,07,27,11,12,19.10
2015,07,27,11,13,19.10
2015,07,27,11,14,19.10
2015,07,27,11,15,19.10
2015,07,27,11,16,19.10
2015,07,27,11,17,19.10
2015,07,27,11,18,19.10
2015,07,27,11,19,19.10
2015,07,27,11,20,19.20
2015,07,27,11,21,19.20
2015,07,27,11,22,19.20
2015,07,27,11,23,19.10
2015,07,27,11,24,19.10
2015,07,27,11,25,19.20
2015,07,27,11,26,19.20
2015,07,27,11,27,19.30
2015,07,27,11,28,19.30
2015,07,27,11,29,19.40
2015,07,27,11,30,19.40
2015,07,27,11,31,19.40
2015,07,27,11,32,19.40
2015,07,27,11,33,19.40
2015,07,27,11,34,19.40
2015,07,27,11,35,19.40
2015,07,27,11,36,19.40
2015,07,27,11,37,19.40
2015,07,27,11,38,19.40
2015,07,27,11,39,19.40
2015,07,27,11,40,19.50
2015,07,27,11,41,19.50
2015,07,27,11,42,19.40
2015,07,27,11,43,19.40
2015,07,27,11,44,19.40
2015,07,27,11,45,19.40
2015,07,27,11,46,19.40
2015,07,27,11,47,19.40
2015,07,27,11,48,19.40
2015,07,27,11,49,19.40
2015,07,27,11,50,19.40
2015,07,27,11,51,19.40
2015,07,27,11,52,19.40
2015,07,27,11,53,19.50
2015,07,27,11,54,19.50
2015,07,27,11,55,19.60
2015,07,27,11,56,19.60
2015,07,27,11,57,19.60
2015,07,27,11,58,19.70
2015,07,27,11,59,19.80
2015,07,27,12,00,20.00
2015,07,27,12,01,20.00
2015,07,27,12,02,20.10
2015,07,27,12,03,20.20
2015,07,27,12,04,20.20
2015,07,27,12,05,20.20
2015,07,27,12,06,20.10
2015,07,27,12,07,20.10
2015,07,27,12,08,20.10
2015,07,27,12,09,20.10
2015,07,27,12,10,20.00
2015,07,27,12,11,19.90
2015,07,27,12,12,19.80
2015,07,27,12,13,19.70
2015,07,27,12,14,19.60
2015,07,27,12,15,19.60
2015,07,27,12,16,19.60
2015,07,27,12,17,19.70
2015,07,27,12,18,19.80
2015,07,27,12,19,19.80
2015,07,27,12,20,19.90
2015,07,27,12,21,19.90
2015,07,27,12,22,19.90
2015,07,27,12,23,19.90
2015,07,27,12,24,19.90
2015,07,27,12,25,19.90
2015,07,27,12,26,19.90
2015,07,27,12,27,19.90
2015,07,27,12,28,19.90
2015,07,27,12,29,19.80
2015,07,27,12,30,19.80
2015,07,27,12,31,19.80
2015,07,27,12,32,19.80
2015,07,27,12,33,19.80
2015,07,27,12,34,19.80
2015,07,27,12,35,19.70
2015,07,27,12,36,19.70
2015,07,27,12,37,19.70
2015,07,27,12,38,19.60
2015,07,27,12,39,19.60
2015,07,27,12,40,19.60
2015,07,27,12,41,19.60
2015,07,27,12,42,19.60
2015,07,27,12,43,19.60
2015,07,27,12,44,19.60
2015,07,27,12,45,19.70
2015,07,27,12,46,19.70
2015,07,27,12,47,19.70
2015,07,27,12,48,19.80
2015,07,27,12,49,19.80
2015,07,27,12,50,19.90
2015,07,27,12,51,19.90
2015,07,27,12,52,19.90
2015,07,27,12,53,19.90
2015,07,27,12,54,19.90
2015,07,27,12,55,19.80
2015,07,27,12,56,19.80
2015,07,27,12,57,19.90
2015,07,27,12,58,19.90
2015,07,27,12,59,19.90
2015,07,27,13,00,19.90
2015,07,27,13,01,19.90
2015,07,27,13,02,19.90
2015,07,27,13,03,19.90
2015,07,27,13,04,19.90
2015,07,27,13,05,20.00
2015,07,27,13,06,20.10
2015,07,27,13,07,20.20
2015,07,27,13,08,20.40
2015,07,27,13,09,20.50
2015,07,27,13,10,20.60
2015,07,27,13,11,20.60
2015,07,27,13,12,20.60
2015,07,27,13,13,20.60
2015,07,27,13,14,20.60
2015,07,27,13,15,20.60
2015,07,27,13,16,20.60
2015,07,27,13,17,20.50
2015,07,27,13,18,20.40
2015,07,27,13,19,20.40
2015,07,27,13,20,20.40
2015,07,27,13,21,20.50
2015,07,27,13,22,20.60
2015,07,27,13,23,20.60
2015,07,27,13,24,20.60
2015,07,27,13,25,20.60
2015,07,27,13,26,20.60
2015,07,27,13,27,20.50
2015,07,27,13,28,20.50
2015,07,27,13,29,20.30
2015,07,27,13,30,20.30
2015,07,27,13,31,20.30
2015,07,27,13,32,20.30
2015,07,27,13,33,20.30
2015,07,27,13,34,20.20
2015,07,27,13,35,20.30
2015,07,27,13,36,20.20
2015,07,27,13,37,20.20
2015,07,27,13,38,20.30
2015,07,27,13,39,20.50
2015,07,27,13,40,20.70
2015,07,27,13,41,20.80
2015,07,27,13,42,20.80
2015,07,27,13,43,20.80
2015,07,27,13,44,20.80
2015,07,27,13,45,20.80
2015,07,27,13,46,20.80
2015,07,27,13,47,20.80
2015,07,27,13,48,20.70
2015,07,27,13,49,20.70
2015,07,27,13,50,20.70
2015,07,27,13,51,20.70
2015,07,27,13,52,20.70
2015,07,27,13,53,20.60
2015,07,27,13,54,20.60
2015,07,27,13,55,20.60
2015,07,27,13,56,20.50
2015,07,27,13,57,20.40
2015,07,27,13,58,20.30
2015,07,27,13,59,20.20
2015,07,27,14,00,20.10
2015,07,27,14,01,20.10
2015,07,27,14,02,20.10
2015,07,27,14,03,20.00
2015,07,27,14,04,19.90
2015,07,27,14,05,19.90
2015,07,27,14,06,19.90
2015,07,27,14,07,19.90
2015,07,27,14,08,19.90
2015,07,27,14,09,19.90
2015,07,27,14,10,19.90
2015,07,27,14,11,19.90
2015,07,27,14,12,19.80
2015,07,27,14,13,19.80
2015,07,27,14,14,19.90
2015,07,27,14,15,19.90
2015,07,27,14,16,19.90
2015,07,27,14,17,20.00
2015,07,27,14,18,19.90
2015,07,27,14,19,19.90
2015,07,27,14,20,19.90
2015,07,27,14,21,19.80
2015,07,27,14,22,19.80
2015,07,27,14,23,19.80
2015,07,27,14,24,19.80
2015,07,27,14,25,19.90
2015,07,27,14,26,20.00
2015,07,27,14,27,20.10
2015,07,27,14,28,20.10
2015,07,27,14,29,20.10
2015,07,27,14,30,20.10
2015,07,27,14,31,20.00
2015,07,27,14,32,20.00
2015,07,27,14,33,19.90
2015,07,27,14,34,19.90
2015,07,27,14,35,19.90
2015,07,27,14,36,19.90
2015,07,27,14,37,19.90
2015,07,27,14,38,19.90
2015,07,27,14,39,20.00
2015,07,27,14,40,20.10
2015,07,27,14,41,20.20
2015,07,27,14,42,20.20
2015,07,27,14,43,20.30
2015,07,27,14,44,20.30
2015,07,27,14,45,20.20
2015,07,27,14,46,20.20
2015,07,27,14,47,20.10
2015,07,27,14,48,20.10
2015,07,27,14,49,20.10
2015,07,27,14,50,20.10
2015,07,27,14,51,20.10
2015,07,27,14,52,20.10
2015,07,27,14,53,20.10
2015,07,27,14,54,20.20
2015,07,27,14,55,20.20
2015,07,27,14,56,20.20
2015,07,27,14,57,20.20
2015,07,27,14,58,20.20
2015,07,27,14,59,20.20
2015,07,27,15,00,20.20
2015,07,27,15,01,20.30
2015,07,27,15,02,20.30
2015,07,27,15,03,20.30
2015,07,27,15,04,20.30
2015,07,27,15,05,20.30
2015,07,27,15,06,20.30
2015,07,27,15,07,20.30
2015,07,27,15,08,20.30
2015,07,27,15,09,20.30
2015,07,27,15,10,20.30
2015,07,27,15,11,20.30
2015,07,27,15,12,20.30
2015,07,27,15,13,20.20
2015,07,27,15,14,20.20
2015,07,27,15,15,20.10
2015,07,27,15,16,20.10
2015,07,27,15,17,20.00
2015,07,27,15,18,19.90
2015,07,27,15,19,19.90
2015,07,27,15,20,19.80
2015,07,27,15,21,19.80
2015,07,27,15,22,19.70
2015,07,27,15,23,19.70
2015,07,27,15,24,19.70
2015,07,27,15,25,19.60
2015,07,27,15,26,19.60
2015,07,27,15,27,19.60
2015,07,27,15,28,19.60
2015,07,27,15,29,19.70
2015,07,27,15,30,19.70
2015,07,27,15,31,19.80
2015,07,27,15,32,19.90
2015,07,27,15,33,19.90
2015,07,27,15,34,20.00
2015,07,27,15,35,20.00
2015,07,27,15,36,20.00
2015,07,27,15,37,20.10
2015,07,27,15,38,20.10
2015,07,27,15,39,20.20
2015,07,27,15,40,20.30
2015,07,27,15,41,20.30
2015,07,27,15,42,20.30
2015,07,27,15,43,20.30
2015,07,27,15,44,20.30
2015,07,27,15,45,20.30
2015,07,27,15,46,20.30
2015,07,27,15,47,20.30
2015,07,27,15,48,20.30
2015,07,27,15,49,20.30
2015,07,27,15,50,20.30
2015,07,27,15,51,20.40
2015,07,27,15,52,20.50
2015,07,27,15,53,20.50
2015,07,27,15,54,20.50
2015,07,27,15,55,20.50
2015,07,27,15,56,20.50
2015,07,27,15,57,20.60
2015,07,27,15,58,20.60
2015,07,27,15,59,20.60
2015,07,27,16,00,20.70
2015,07,27,16,01,20.80
2015,07,27,16,02,20.90
2015,07,27,16,03,20.90
2015,07,27,16,04,20.90
2015,07,27,16,05,20.90
2015,07,27,16,06,20.90
2015,07,27,16,07,20.90
2015,07,27,16,08,20.80
2015,07,27,16,09,20.80
2015,07,27,16,10,20.70
2015,07,27,16,11,20.70
2015,07,27,16,12,20.60
2015,07,27,16,13,20.60
2015,07,27,16,14,20.60
2015,07,27,16,15,20.60
2015,07,27,16,16,20.60
2015,07,27,16,17,20.60
2015,07,27,16,18,20.50
2015,07,27,16,19,20.50
2015,07,27,16,20,20.50
2015,07,27,16,21,20.40
2015,07,27,16,22,20.40
2015,07,27,16,23,20.30
2015,07,27,16,24,20.20
2015,07,27,16,25,20.20
2015,07,27,16,26,20.10
2015,07,27,16,27,20.00
2015,07,27,16,28,20.00
2015,07,27,16,29,20.00
2015,07,27,16,30,19.90
2015,07,27,16,31,19.90
2015,07,27,16,32,19.90
2015,07,27,16,33,19.90
2015,07,27,16,34,19.90
2015,07,27,16,35,19.90
2015,07,27,16,36,19.90
2015,07,27,16,37,19.90
2015,07,27,16,38,19.90
2015,07,27,16,39,19.80
2015,07,27,16,40,19.80
2015,07,27,16,41,19.80
2015,07,27,16,42,19.80
2015,07,27,16,43,19.80
2015,07,27,16,44,19.90
2015,07,27,16,45,19.90
2015,07,27,16,46,19.90
2015,07,27,16,47,19.90
2015,07,27,16,48,19.90
2015,07,27,16,49,19.90
2015,07,27,16,50,19.90
2015,07,27,16,51,19.90
2015,07,27,16,52,19.90
2015,07,27,16,53,19.90
2015,07,27,16,54,19.80
2015,07,27,16,55,19.80
2015,07,27,16,56,19.80
2015,07,27,16,57,19.80
2015,07,27,16,58,19.80
2015,07,27,16,59,19.70
2015,07,27,17,00,19.70
2015,07,27,17,01,19.70
2015,07,27,17,02,19.60
2015,07,27,17,03,19.60
2015,07,27,17,04,19.60
2015,07,27,17,05,19.60
2015,07,27,17,06,19.60
2015,07,27,17,07,19.60
2015,07,27,17,08,19.70
2015,07,27,17,09,19.80
2015,07,27,17,10,19.80
2015,07,27,17,11,19.80
2015,07,27,17,12,19.80
2015,07,27,17,13,19.90
2015,07,27,17,14,19.90
2015,07,27,17,15,19.90
2015,07,27,17,16,19.90
2015,07,27,17,17,19.90
2015,07,27,17,18,19.90
2015,07,27,17,19,19.90